When you browse on this site, cookies collect data to enhance your experience and personalize the content and advertising you see.
Visit our Privacy Policy to learn more. By continuing to use the site, you agree to this use of cookies and data.

Stündliche Wetter Stuttgart

Heute, 6 Juli, Montag

Zeit Temperatur Niederschläge Wind Luftdruck Luftfeuchtigkeit
00:00 +20°C° 0.1 mm 3 m/S 735 mmHg 91%
01:00 +20°C° 0 mm 3 m/S 735 mmHg 93%
02:00 +20°C° 0.3 mm 3 m/S 735 mmHg 94%
03:00 +19°C° 0.3 mm 3 m/S 735 mmHg 94%
04:00 +19°C° 0.3 mm 4 m/S 735 mmHg 94%
05:00 +18°C° 0.4 mm 4 m/S 735 mmHg 91%
06:00 +15°C° 0.4 mm 4 m/S 735 mmHg 87%
07:00 +14°C° 0.4 mm 5 m/S 735 mmHg 84%
08:00 +15°C° 0 mm 5 m/S 736 mmHg 76%
09:00 +16°C° 0 mm 5 m/S 736 mmHg 68%
10:00 +17°C° 0 mm 5 m/S 736 mmHg 60%
11:00 +19°C° 0 mm 6 m/S 737 mmHg 55%
12:00 +20°C° 0 mm 6 m/S 737 mmHg 51%
13:00 +21°C° 0 mm 7 m/S 737 mmHg 46%
14:00 +20°C° 0 mm 6 m/S 737 mmHg 48%
15:00 +20°C° 0 mm 6 m/S 737 mmHg 50%
16:00 +20°C° 0 mm 6 m/S 738 mmHg 52%
17:00 +19°C° 0 mm 5 m/S 738 mmHg 56%
18:00 +18°C° 0 mm 4 m/S 738 mmHg 61%
19:00 +17°C° 0 mm 3 m/S 739 mmHg 65%
20:00 +16°C° 0 mm 3 m/S 739 mmHg 71%
21:00 +14°C° 0 mm 3 m/S 740 mmHg 76%
22:00 +13°C° 0 mm 2 m/S 740 mmHg 82%
23:00 +13°C° 0 mm 2 m/S 740 mmHg 84%

Morgen, 7 Juli, Dienstag

Zeit Temperatur Niederschläge Wind Luftdruck Luftfeuchtigkeit
00:00 +12°C° 0 mm 2 m/S 740 mmHg 87%
01:00 +12°C° 0 mm 1 m/S 740 mmHg 89%
02:00 +11°C° 0 mm 1 m/S 740 mmHg 89%
03:00 +11°C° 0 mm 1 m/S 740 mmHg 90%
04:00 +9°C° 0 mm 0 m/S 740 mmHg 90%
05:00 +11°C° 0 mm 0 m/S 740 mmHg 86%
06:00 +12°C° 0 mm 0 m/S 740 mmHg 82%
07:00 +13°C° 0 mm 0 m/S 740 mmHg 77%
08:00 +15°C° 0 mm 0 m/S 739 mmHg 70%
09:00 +17°C° 0 mm 0 m/S 739 mmHg 62%
10:00 +21°C° 0 mm 1 m/S 739 mmHg 55%
11:00 +22°C° 0 mm 1 m/S 739 mmHg 51%
12:00 +23°C° 0 mm 1 m/S 738 mmHg 48%
13:00 +23°C° 0 mm 1 m/S 738 mmHg 45%
14:00 +23°C° 0 mm 1 m/S 738 mmHg 44%
15:00 +24°C° 0 mm 1 m/S 738 mmHg 44%
16:00 +24°C° 0 mm 1 m/S 738 mmHg 43%
17:00 +23°C° 0 mm 1 m/S 737 mmHg 49%
18:00 +22°C° 0 mm 1 m/S 737 mmHg 55%
19:00 +21°C° 0 mm 1 m/S 737 mmHg 60%
20:00 +19°C° 0 mm 1 m/S 737 mmHg 63%
21:00 +18°C° 0 mm 1 m/S 738 mmHg 65%
22:00 +15°C° 0 mm 1 m/S 738 mmHg 67%
23:00 +15°C° 0 mm 1 m/S 738 mmHg 70%

übermorgen, 8 Juli, Mittwoch

Zeit Temperatur Niederschläge Wind Luftdruck Luftfeuchtigkeit
00:00 +14°C° 0 mm 1 m/S 737 mmHg 73%
01:00 +14°C° 0 mm 1 m/S 737 mmHg 76%
02:00 +13°C° 0 mm 1 m/S 737 mmHg 79%
03:00 +13°C° 0 mm 1 m/S 737 mmHg 81%
04:00 +13°C° 0 mm 1 m/S 737 mmHg 83%
05:00 +14°C° 0 mm 1 m/S 737 mmHg 80%
06:00 +15°C° 0 mm 2 m/S 737 mmHg 76%
07:00 +17°C° 0 mm 2 m/S 737 mmHg 72%
08:00 +18°C° 0 mm 2 m/S 737 mmHg 67%
09:00 +20°C° 0 mm 3 m/S 738 mmHg 61%
10:00 +21°C° 0 mm 3 m/S 738 mmHg 56%
11:00 +22°C° 0 mm 3 m/S 738 mmHg 54%
12:00 +23°C° 0 mm 4 m/S 738 mmHg 52%
13:00 +25°C° 0 mm 4 m/S 738 mmHg 50%
14:00 +25°C° 0 mm 4 m/S 738 mmHg 52%
15:00 +25°C° 0 mm 4 m/S 738 mmHg 55%
16:00 +25°C° 0 mm 4 m/S 738 mmHg 57%
17:00 +23°C° 0 mm 4 m/S 738 mmHg 63%
18:00 +22°C° 0 mm 3 m/S 738 mmHg 69%
19:00 +21°C° 0 mm 2 m/S 738 mmHg 75%
20:00 +21°C° 0 mm 1 m/S 738 mmHg 79%
21:00 +19°C° 0 mm 1 m/S 738 mmHg 84%
22:00 +16°C° 0 mm 0 m/S 739 mmHg 88%
23:00 +18°C° 0 mm 1 m/S 739 mmHg 88%

9 Juli, Donnerstag

Zeit Temperatur Niederschläge Wind Luftdruck Luftfeuchtigkeit
00:00 +18°C° 0 mm 1 m/S 739 mmHg 89%
01:00 +16°C° 0 mm 1 m/S 739 mmHg 90%
02:00 +16°C° 0 mm 1 m/S 739 mmHg 91%
03:00 +16°C° 0 mm 1 m/S 739 mmHg 91%
04:00 +15°C° 0 mm 1 m/S 738 mmHg 92%
05:00 +16°C° 0 mm 1 m/S 739 mmHg 89%
06:00 +18°C° 0 mm 1 m/S 739 mmHg 86%
07:00 +20°C° 0 mm 1 m/S 739 mmHg 82%
08:00 +21°C° 0 mm 1 m/S 739 mmHg 76%
09:00 +22°C° 0 mm 1 m/S 739 mmHg 70%
10:00 +24°C° 0 mm 2 m/S 739 mmHg 64%
11:00 +25°C° 0 mm 1 m/S 739 mmHg 60%
12:00 +26°C° 0 mm 1 m/S 738 mmHg 57%
13:00 +27°C° 0 mm 1 m/S 738 mmHg 53%
14:00 +27°C° 0 mm 1 m/S 738 mmHg 53%
15:00 +27°C° 0 mm 1 m/S 738 mmHg 52%
16:00 +28°C° 0 mm 1 m/S 737 mmHg 52%
17:00 +27°C° 0 mm 1 m/S 737 mmHg 57%
18:00 +26°C° 0 mm 1 m/S 737 mmHg 62%
19:00 +25°C° 0 mm 1 m/S 737 mmHg 67%
20:00 +24°C° 0 mm 1 m/S 737 mmHg 72%
21:00 +22°C° 0 mm 1 m/S 737 mmHg 76%
22:00 +20°C° 0 mm 1 m/S 737 mmHg 81%
23:00 +20°C° 0 mm 1 m/S 736 mmHg 83%

10 Juli, Freitag

Zeit Temperatur Niederschläge Wind Luftdruck Luftfeuchtigkeit
00:00 +20°C° 0 mm 1 m/S 736 mmHg 85%
01:00 +19°C° 0 mm 1 m/S 736 mmHg 88%
02:00 +19°C° 0 mm 1 m/S 735 mmHg 88%
03:00 +19°C° 0 mm 1 m/S 735 mmHg 89%
04:00 +18°C° 0 mm 1 m/S 735 mmHg 90%
05:00 +20°C° 0 mm 1 m/S 735 mmHg 86%
06:00 +21°C° 0 mm 1 m/S 735 mmHg 81%
07:00 +22°C° 0 mm 1 m/S 735 mmHg 77%
08:00 +24°C° 0 mm 2 m/S 734 mmHg 69%
09:00 +26°C° 0 mm 2 m/S 734 mmHg 62%
10:00 +28°C° 0 mm 2 m/S 734 mmHg 54%
11:00 +29°C° 0 mm 3 m/S 734 mmHg 50%
12:00 +30°C° 0 mm 3 m/S 734 mmHg 46%
13:00 +32°C° 0 mm 4 m/S 734 mmHg 43%
14:00 +29°C° 0.7 mm 4 m/S 733 mmHg 53%
15:00 +27°C° 0.7 mm 5 m/S 733 mmHg 63%
16:00 +24°C° 0.7 mm 6 m/S 733 mmHg 74%
17:00 +23°C° 1.7 mm 5 m/S 734 mmHg 78%
18:00 +22°C° 1.7 mm 4 m/S 734 mmHg 83%
19:00 +20°C° 1.7 mm 3 m/S 734 mmHg 88%
20:00 +19°C° 0.1 mm 3 m/S 735 mmHg 87%
21:00 +18°C° 0.1 mm 2 m/S 736 mmHg 87%
22:00 +17°C° 0.1 mm 2 m/S 736 mmHg 86%
23:00 +17°C° 0 mm 2 m/S 737 mmHg 85%

11 Juli, Samstag

Zeit Temperatur Niederschläge Wind Luftdruck Luftfeuchtigkeit
00:00 +16°C° 0 mm 2 m/S 737 mmHg 83%
01:00 +16°C° 0 mm 2 m/S 737 mmHg 82%
02:00 +15°C° 0 mm 2 m/S 738 mmHg 82%
03:00 +14°C° 0 mm 1 m/S 738 mmHg 82%
04:00 +13°C° 0 mm 1 m/S 738 mmHg 82%
05:00 +13°C° 0 mm 1 m/S 738 mmHg 79%
06:00 +14°C° 0 mm 1 m/S 739 mmHg 76%
07:00 +14°C° 0 mm 1 m/S 739 mmHg 73%
08:00 +16°C° 0 mm 1 m/S 739 mmHg 67%
09:00 +17°C° 0 mm 2 m/S 740 mmHg 60%
10:00 +18°C° 0 mm 2 m/S 740 mmHg 54%
11:00 +19°C° 0 mm 2 m/S 740 mmHg 50%
12:00 +20°C° 0 mm 2 m/S 740 mmHg 47%
13:00 +21°C° 0 mm 2 m/S 741 mmHg 44%
14:00 +21°C° 0 mm 2 m/S 741 mmHg 43%
15:00 +21°C° 0 mm 2 m/S 741 mmHg 42%
16:00 +21°C° 0 mm 2 m/S 741 mmHg 41%
17:00 +21°C° 0 mm 2 m/S 741 mmHg 47%
18:00 +20°C° 0 mm 2 m/S 741 mmHg 52%
19:00 +19°C° 0 mm 2 m/S 741 mmHg 58%
20:00 +18°C° 0 mm 1 m/S 741 mmHg 61%
21:00 +15°C° 0 mm 1 m/S 741 mmHg 65%
22:00 +14°C° 0 mm 1 m/S 741 mmHg 68%
23:00 +13°C° 0 mm 1 m/S 741 mmHg 70%
Mehr zeigen